Погода Им. Полины Осипенко

Погода Им. Полины Осипенко : погода сейчас, прогноз погоды и архив. Всё, что Вы хотите узнать о погоде Им. Полины Осипенко!

Хотите узнать прогноз погоды Им. Полины Осипенко? Тогда Вам сюда: Погода Им. Полины Осипенко

Поиск расширенной информации на нашем сайте:

Другие новости

Новости СМИ2

Главная страница сайта

Новости сайта

03.07.2017

Напоминаем, что на нашем специализированном сайте Метеоцентр.Азия вы можете получить высокодетализированные автоматические прогнозы погоды по пунктам России, СНГ и мира в авиационном формате (включающие направление и скорость ветра, видимость, явления погоды, количество и форму облачности, нижнюю и верхнюю границу облачности).

Рекомендуем: пленка на кузов

Погода Им. Полины Осипенко - сегодня

Время (UTC), дата Ветер
(°,м/с) 
Видим.   Явления Облачность Т
(°С)
Тd
(°С)
f(%) Тe
(°С)
Pmin
(гПа)
dP
(гПа)
Po
(мм)
O2
(г/м3)
Тmin Tmax R s Состояние
почвы
21 21.07.17 180 (Ю) 20000 м    9/3 600 м средняя, верхняя 
[Sc|Ac trans|Ci fib]
+12.7 +11.5 92 +17  1009.5  0.5  751  287  +9.8        влажная 
00 22.07.17 120 (ЮВ) 20000 м    8/0 верхняя 
[Ci fib]
+19.6 +14.2 71 +28  1009.2  0.1  751  279           
03 22.07.17 140 (ЮВ) 20000 м    4/3 600 м средняя 
[Cu med, cong|Ac trans]
+25.5 +11.7 42 +29  1007.5  -1.6  749  274           
06 22.07.17 120 (ЮВ) 20000 м    6/6 600 м 
[Cu med, cong]
+27.3 +9.2 32 +28  1005.6  -1.8  748  272           
09 22.07.17 160 (Ю) 20000 м    10/3 600 м верхняя 
[Cu med, cong|Ci fib]
+26.2 +10.8 38 +29  1004.5  -1.1  747  273    +27.7       
12 22.07.17 180 (Ю) 20000 м    9/4 600 м средняя, верхняя 
[Cu med, cong|Ac trans|Ci fib]
+20.9 +13.8 64 +28  1004.9  0.2  747  277           
15 22.07.17 140 (ЮВ) 20000 м    6/0 средняя 
[Ac trans]
+18 +14.7 81 +27  1004.4  -0.5  747  279           
18 22.07.17 130 (ЮВ) 20000 м    10/5 600 м кучево-дожд., средняя 
[Cb cap|Ac As]
+17.2 +14.5 84 +26  1003.4  -1  746  280           
21 22.07.17 130 (ЮВ) 20000 м    10/6 600 м кучево-дожд., средняя, верхняя 
[Cb cap|Ac trans|Ci fib]
+18.3 +14.9 81 +28  1003  -0.4  746  279  +16.4        сухая 
00 23.07.17 160 (Ю) 10 км  {ливн. осадки}  10/10 300 м кучево-дожд. 
[Cb cap]
+17.7 +15.9 89 +29  1003.1  0.1  746  279           
03 23.07.17 150 (ЮВ) 20000 м  {ливн. осадки}  10/10 300 м кучево-дожд. 
[Cb cap]
+18.9 +16.2 84 +31  1002.1  -0.9  745  277           
06 23.07.17 160 (Ю) 20000 м  {ливн. осадки}  10/8 600 м кучево-дожд., средняя 
[Cb cap|Ac trans]
+20.9 +16 74 +32  1000.2  -1.8  744  275           
09 23.07.17 140 (ЮВ) 20000 м  {ливн. осадки}  8/5 600 м кучево-дожд., средняя, верхняя 
[Cb cap|Ac trans|Ci fib]
+21.2 +16.7 76 +33  999.4  -0.8  743  274    +22.4     
12 23.07.17 340 (С) 10 км  гроза, ливневой дождь  10/8 600 м кучево-дожд., средняя 
[Cb cap|Ac trans]
+17.7 +16.3 92 +29  999.6  0.1  743  278           
15 23.07.17 340 (С) 10 км  ливневой дождь{гроза}  10/10 600 м кучево-дожд. 
[Cb cap]
+14.5 +14 97 +22  999.6  0.1  743  281           
18 23.07.17 340 (С) 4{10}  10 км  слаб. ливневой дождь{гроза}  10/10 600 м кучево-дожд. 
[Cb cap]
+13.1 +12.6 97 +18  998.6  -1  743  283           
21 23.07.17 340 (С) 10 км  ливневой дождь  10/10 600 м кучево-дожд. 
[Cb cap]
+12.2 +11.6 96 +16  998.4  -0.2  742  284  +12.2    22    влажная 
00 24.07.17 340 (С) 4{11}  4000 м  ливневой дождь  10/10 300 м кучево-дожд. 
[Cb cap]
+12.3 +11.7 96 +16  998.3  -0.1  742  284  +12         
03 24.07.17 340 (С) 4{12}  10 км  слаб. ливневой дождь  10/10 300 м кучево-дожд. 
[Cb cap]
+12.8 +12 95 +16  998.1  -0.2  742  283           
06 24.07.17 330 (СЗ) 4{11}  10 км  слаб. ливневой дождь  10/10 300 м кучево-дожд. 
[Cb cap]
+12.6 +11.9 95 +16  997.9  -0.2  742  283           
09 24.07.17 330 (СЗ) 10 км  слаб. ливневой дождь{морось}  10/10 300 м кучево-дожд. 
[Cb cap]
+12.7 +11.6 93 +17  998.1  0.2  742  283    +13  22     
12 24.07.17 340 (С) 10 км  слаб. ливневой дождь{морось}  10/8 300 м кучево-дожд., средняя 
[Cb cap|As op]
+12.4 +11.2 92 +15  998.5  0.4  742  284           
15 24.07.17 340 (С) 10 км  слаб. морось{ливн. осадки}  10/10 300 м 
[St]
+11.9 +11 94 +15  998.1  -0.4  742  284           
18 24.07.17 350 (С) 10 км  {ливн. осадки, морось}  10/10 300 м кучево-дожд. 
[Cb cap]
+11.8 +10.9 94 +15  998.2  -0.1  742  285           
21 24.07.17 340 (С) 10 км  слаб. ливневой дождь  10/10 300 м кучево-дожд. 
[Cb cap]
+11.9 +11 94 +15  998.7  0.4  743  285  +11.6      влажная 
Время (UTC), дата Ветер
(°,м/с) 
Видим.   Явления Облачность Т
(°С)
Тd
(°С)
f(%) Тe
(°С)
Pmin
(гПа)
dP
(гПа)
Po
(мм)
O2
(г/м3)
Тmin Tmax R s Состояние
почвы

Для получения пояснительной информации подведите курсор к названию столбца.

ПОГОДА Им. Полины Осипенко - архив

Всё, что Вы хотите узнать о погоде Им. Полины Осипенко - удобно и подробно!

Выберите нужную дату (начиная с 1 января 2015* года) и нажмите кнопку "Найти".
Будут отображены архивные сводки погоды по пункту Им. Полины Осипенко, начиная с указанной даты.


Отображать данные в формате CSV (для использования в таблицах Excel)


Внимание! Наш архив погоды предназначен исключительно для личного некоммерческого использования в познавательных целях. Если Вам необходимы официальные справки о состоянии погоды (для производственных, юридических, коммерческих и т.п. целей), обращайтесь в органы Росгидромета.

*Примечание: данная дата относится к архиву по метеостанциям СССР (Россия, СНГ, Балтия).
Архив по метеостанциям Зарубежной Европы и Азии (кроме Китая) хранится 10 дней, по другим регионам земного шара (Китай, Африка, Америка, Австралия, Океания) - 1 день.

Им. Полины Осипенко - район местоположения метеостанции


Название, широта, долгота, высота метеостанции:
Им. Полины Осипенко 52.4°ш. 136.5°д. 73 м над ур. моря [Российская Федерация]

Дополнительная информация

В oтличие oт бoльшинства пoгoдных сайтoв мы публикуем пoдрoбную метеoинфoрмацию в детальнoм прoфессиoнальнoм фoрмате.

Характеристики температуры и влажнoсти вoздуха измеряются на высoте 2 м в тени вдали oт зданий и деревьев.
Скoрoсть ветра измеряется на высoте 10 м (на урoвне рoста челoвека скoрoсть ветра ниже в 1.5-2 раза). Если метеoстанция нахoдится в гoрoде или в лесу, тo скoрoсть ветра занижена на 2-4 м/с пo сравнению с oткрытым местoм. Скoрoсть ветра над акватoриями крупных рек и oзёр, а также на вершинах хoлмoв на 2-5 м/с выше, чем в oбычных услoвиях.
Атмoсфернoе давление в разных тoчках местнoсти мoжет значительнo oтличаться oт давления на метеoстанции, в зависимoсти oт услoвий рельефа (при пoдъёме на 10 м давление пoнижается примернo на 1 мм рт.ст.).